H1 CPF 2 NER 2022 5 27 9 147 01 glonass128 H2 1106401 9128 37867 2022 5 27 0 0 0 2022 5 30 23 45 0 900 1 1 0 0 0 1 H9 10 0 59726 0.00000 0 -16232694.975 -14067356.533 -13749765.145 10 0 59726 900.00000 0 -17180792.611 -15283043.108 -11048769.542 10 0 59726 1800.00000 0 -18005678.779 -16150800.942 -8133216.142 10 0 59726 2700.00000 0 -18649881.680 -16677720.536 -5059849.496 10 0 59726 3600.00000 0 -19060429.497 -16883323.857 -1888379.694 10 0 59726 4500.00000 0 -19191200.065 -16798502.688 1319679.542 10 0 59726 5400.00000 0 -19004994.432 -16463996.676 4502200.320 10 0 59726 6300.00000 0 -18475248.510 -15928477.465 7597634.757 10 0 59726 7200.00000 0 -17587312.554 -15246321.002 10546191.321 10 0 59726 8100.00000 0 -16339246.424 -14475162.401 13290971.801 10 0 59726 9000.00000 0 -14742098.611 -13673335.853 15779048.550 10 0 59726 9900.00000 0 -12819658.276 -12897306.091 17962463.060 10 0 59726 10800.00000 0 -10607690.798 -12199197.621 19799128.770 10 0 59726 11700.00000 0 -8152688.079 -11624523.332 21253622.888 10 0 59726 12600.00000 0 -5510184.213 -11210205.723 22297853.907 10 0 59726 13500.00000 0 -2742704.344 -10982971.787 22911593.700 10 0 59726 14400.00000 0 82570.996 -10958187.544 23082865.097 10 0 59726 15300.00000 0 2896332.269 -11139180.425 22808178.023 10 0 59726 16200.00000 0 5629756.597 -11517078.202 22092609.512 10 0 59726 17100.00000 0 8217107.403 -12071172.336 20949725.156 10 0 59726 18000.00000 0 10598212.711 -12769792.439 19401341.955 10 0 59726 18900.00000 0 12720721.216 -13571657.628 17477135.044 10 0 59726 19800.00000 0 14542043.450 -14427650.794 15214093.356 10 0 59726 20700.00000 0 16030897.345 -15282943.896 12655832.165 10 0 59726 21600.00000 0 17168393.184 -16079387.114 9851773.196 10 0 59726 22500.00000 0 17948611.294 -16758062.836 6856205.907 10 0 59726 23400.00000 0 18378646.551 -17261897.420 3727246.478 10 0 59726 24300.00000 0 18478116.020 -17538220.102 525713.607 10 0 59726 25200.00000 0 18278148.757 -17541159.569 -2686057.367 10 0 59726 26100.00000 0 17819899.100 -17233774.584 -5845438.396 10 0 59726 27000.00000 0 17152645.566 -16589825.629 -8890745.745 10 0 59726 27900.00000 0 16331555.867 -15595109.289 -11762464.269 10 0 59726 28800.00000 0 15415213.436 -14248295.653 -14404432.820 10 0 59726 29700.00000 0 14463011.729 -12561230.239 -16764965.372 10 0 59726 30600.00000 0 13532528.656 -10558685.121 -18797883.663 10 0 59726 31500.00000 0 12676994.542 -8277567.983 -20463439.032 10 0 59726 32400.00000 0 11942963.062 -5765621.340 -21729103.805 10 0 59726 33300.00000 0 11368285.570 -3079666.349 -22570215.528 10 0 59726 34200.00000 0 10980475.906 -283465.445 -22970460.827 10 0 59726 35100.00000 0 10795535.490 2554705.737 -22922189.359 10 0 59726 36000.00000 0 10817288.228 5364674.346 -22426552.191 10 0 59726 36900.00000 0 11037252.514 8077063.621 -21493462.815 10 0 59726 37800.00000 0 11435054.155 10625950.145 -20141382.868 10 0 59726 38700.00000 0 11979360.771 12951373.765 -18396938.289 10 0 59726 39600.00000 0 12629295.854 15001595.616 -16294375.186 10 0 59726 40500.00000 0 13336270.365 16735011.098 -13874867.819 10 0 59726 41400.00000 0 14046152.276 18121639.788 -11185693.956 10 0 59726 42300.00000 0 14701680.568 19144132.500 -8279295.392 10 0 59726 43200.00000 0 15245020.412 19798256.556 -5212243.348 10 0 59726 44100.00000 0 15620350.979 20092842.381 -2044129.987 10 0 59726 45000.00000 0 15776376.670 20049197.111 1163591.539 10 0 59726 45900.00000 0 15668656.451 19700013.096 4348795.731 10 0 59726 46800.00000 0 15261654.299 19087819.839 7449879.175 10 0 59726 47700.00000 0 14530425.890 18263046.345 10406938.237 10 0 59726 48600.00000 0 13461872.212 17281776.371 13162908.407 10 0 59726 49500.00000 0 12055508.856 16203290.997 15664644.902 10 0 59726 50400.00000 0 10323719.837 15087500.927 17863925.470 10 0 59726 51300.00000 0 8291485.692 13992374.771 19718358.247 10 0 59726 52200.00000 0 5995596.879 12971469.085 21192179.318 10 0 59726 53100.00000 0 3483384.132 12071661.397 22256926.574 10 0 59726 54000.00000 0 811016.618 11331178.930 22891978.637 10 0 59726 54900.00000 0 -1958564.069 10778003.603 23084949.665 10 0 59726 55800.00000 0 -4757991.389 10428718.817 22831932.998 10 0 59726 56700.00000 0 -7518008.838 10287845.720 22137588.851 10 0 59726 57600.00000 0 -10170090.618 10347697.097 21015073.509 10 0 59726 58500.00000 0 -12649042.163 10588756.136 19485809.872 10 0 59726 59400.00000 0 -14895474.893 10980566.057 17579101.691 10 0 59726 60300.00000 0 -16858053.908 11483095.548 15331596.456 10 0 59726 61200.00000 0 -18495425.581 12048525.100 12786604.685 10 0 59726 62100.00000 0 -19777744.393 12623381.327 9993286.223 10 0 59726 63000.00000 0 -20687734.172 13150931.177 7005716.953 10 0 59726 63900.00000 0 -21221237.529 13573735.996 3881852.342 10 0 59726 64800.00000 0 -21387228.523 13836257.700 682406.802 10 0 59726 65700.00000 0 -21207285.985 13887405.915 -2530329.750 10 0 59726 66600.00000 0 -20714547.962 13682916.497 -5693714.570 10 0 59726 67500.00000 0 -19952190.227 13187458.066 -8745989.109 10 0 59726 68400.00000 0 -18971492.596 12376374.242 -11627504.523 10 0 59726 69300.00000 0 -17829575.123 11236984.445 -14281909.590 10 0 59726 70200.00000 0 -16586900.888 9769384.941 -16657275.522 10 0 59726 71100.00000 0 -15304652.654 7986713.326 -18707133.436 10 0 59726 72000.00000 0 -14042096.314 5914863.023 -20391402.045 10 0 59726 72900.00000 0 -12854044.708 3591658.216 -21677185.777 10 0 59726 73800.00000 0 -11788530.892 1065523.155 -22539426.514 10 0 59726 74700.00000 0 -10884790.656 -1606298.215 -22961395.491 10 0 59726 75600.00000 0 -10171640.284 -4359897.074 -22935015.701 10 0 59726 76500.00000 0 -9666318.097 -7127137.730 -22461008.893 10 0 59726 77400.00000 0 -9373837.935 -9838275.553 -21548865.230 10 0 59726 78300.00000 0 -9286880.326 -12424644.387 -20216637.442 10 0 59726 79200.00000 0 -9386223.788 -14821300.420 -18490565.091 10 0 59726 80100.00000 0 -9641695.517 -16969511.842 -16404537.982 10 0 59726 81000.00000 0 -10013598.521 -18818990.855 -13999411.053 10 0 59726 81900.00000 0 -10454552.232 -20329776.032 -11322185.810 10 0 59726 82800.00000 0 -10911666.428 -21473688.272 -8425076.015 10 0 59726 83700.00000 0 -11328954.672 -22235302.106 -5364477.231 10 0 59726 84600.00000 0 -11649884.007 -22612394.785 -2199861.421 10 0 59726 85500.00000 0 -11819952.634 -22615857.537 1007381.051 10 0 59727 0.00000 0 -11789186.873 -22269076.034 4195128.939 10 0 59727 900.00000 0 -11514452.706 -21606808.653 7301725.981 10 0 59727 1800.00000 0 -10961485.819 -20673612.382 10267158.201 10 0 59727 2700.00000 0 -10106556.055 -19521883.286 13034196.809 10 0 59727 3600.00000 0 -8937697.770 -18209594.655 15549481.814 10 0 59727 4500.00000 0 -7455455.692 -16797827.211 17764529.043 10 0 59727 5400.00000 0 -5673115.737 -15348193.636 19636642.992 10 0 59727 6300.00000 0 -3616411.098 -13920263.383 21129720.075 10 0 59727 7200.00000 0 -1322715.130 -12569093.215 22214928.797 10 0 59727 8100.00000 0 1160246.990 -11342964.241 22871255.483 10 0 59727 9000.00000 0 3776116.691 -10281417.722 23085906.301 10 0 59727 9900.00000 0 6461982.015 -9413669.855 22854558.415 10 0 59727 10800.00000 0 9150736.260 -8757470.526 22181455.373 10 0 59727 11700.00000 0 11773620.814 -8318453.307 21079344.057 10 0 59727 12600.00000 0 14262849.765 -8090004.302 19569252.924 10 0 59727 13500.00000 0 16554209.967 -8053656.479 17680113.751 10 0 59727 14400.00000 0 18589530.443 -8179994.723 15448231.708 10 0 59727 15300.00000 0 20318919.221 -8430035.700 12916611.388 10 0 59727 16200.00000 0 21702674.455 -8757026.666 10134149.236 10 0 59727 17100.00000 0 22712789.113 -9108589.264 7154705.679 10 0 59727 18000.00000 0 23333984.652 -9429119.216 4036073.230 10 0 59727 18900.00000 0 23564228.270 -9662340.967 838859.436 10 0 59727 19800.00000 0 23414709.762 -9753908.833 -2374694.054 10 0 59727 20700.00000 0 22909276.792 -9653943.138 -5541932.822 10 0 59727 21600.00000 0 22083350.724 -9319391.685 -8601026.582 10 0 59727 22500.00000 0 20982367.599 -8716113.613 -11492195.846 10 0 59727 23400.00000 0 19659809.838 -7820594.107 -14158902.246 10 0 59727 24300.00000 0 18174912.205 -6621213.979 -16548976.983 10 0 59727 25200.00000 0 16590140.106 -5119017.258 -18615663.071 10 0 59727 26100.00000 0 14968548.406 -3327941.670 -20318548.852 10 0 59727 27000.00000 0 13371134.170 -1274500.301 -21624372.817 10 0 59727 27900.00000 0 11854296.933 1003073.481 -22507682.801 10 0 59727 28800.00000 0 10467515.234 3456182.236 -22951335.903 10 0 59727 29700.00000 0 9251338.370 6027664.656 -22946829.282 10 0 59727 30600.00000 0 8235778.284 8653963.516 -22494455.777 10 0 59727 31500.00000 0 7439168.846 11267569.356 -21603282.162 10 0 59727 32400.00000 0 6867539.188 13799636.532 -20290951.761 10 0 59727 33300.00000 0 6514525.381 16182661.201 -18583316.796 10 0 59727 34200.00000 0 6361821.543 18353108.617 -16513909.383 10 0 59727 35100.00000 0 6380148.278 20253879.925 -14123263.328 10 0 59727 36000.00000 0 6530694.477 21836515.957 -11458101.675 10 0 59727 36900.00000 0 6766968.673 23063047.194 -8570407.593 10 0 59727 37800.00000 0 7036979.220 23907414.567 -5516398.130 10 0 59727 38700.00000 0 7285649.208 24356404.202 -2355421.950 10 0 59727 39600.00000 0 7457362.922 24410059.870 851196.614 10 0 59727 40500.00000 0 7498535.780 24081558.903 4041344.432 10 0 59727 41400.00000 0 7360099.531 23396559.644 7153314.477 10 0 59727 42300.00000 0 6999798.751 22392050.182 10126986.124 10 0 59727 43200.00000 0 6384203.140 21114748.387 12904969.180 10 0 59727 44100.00000 0 5490352.376 19619121.180 15433691.081 10 0 59727 45000.00000 0 4306965.782 17965105.995 17664408.071 10 0 59727 45900.00000 0 2835167.054 16215628.891 19554123.036 10 0 59727 46800.00000 0 1088694.080 14434021.401 21066394.436 10 0 59727 47700.00000 0 -906415.263 12681441.824 22172022.763 10 0 59727 48600.00000 0 -3112649.398 11014406.052 22849603.058 10 0 59727 49500.00000 0 -5482329.109 9482528.324 23085934.121 10 0 59727 50400.00000 0 -7959341.638 8126563.882 22876277.130 10 0 59727 51300.00000 0 -10481234.019 6976833.324 22224458.683 10 0 59727 52200.00000 0 -12981582.138 6052093.277 21142815.472 10 0 59727 53100.00000 0 -15392540.356 5358900.296 19651980.210 10 0 59727 54000.00000 0 -17647468.751 4891495.017 17780510.893 10 0 59727 54900.00000 0 -19683530.988 4632212.613 15564368.108 10 0 59727 55800.00000 0 -21444155.958 4552404.042 13046247.859 10 0 59727 56700.00000 0 -22881261.028 4613831.253 10274780.225 10 0 59727 57600.00000 0 -23957143.431 4770479.491 7303607.020 10 0 59727 58500.00000 0 -24645959.207 4970711.730 4190354.547 10 0 59727 59400.00000 0 -24934725.641 5159675.070 995520.234 10 0 59727 60300.00000 0 -24823802.662 5281857.326 -2218705.731 10 0 59727 61200.00000 0 -24326830.452 5283684.652 -5389660.338 10 0 59727 62100.00000 0 -23470123.690 5116048.376 -8455444.505 10 0 59727 63000.00000 0 -22291546.290 4736651.364 -11356150.870 10 0 59727 63900.00000 0 -20838913.118 4112071.481 -14035056.466 10 0 59727 64800.00000 0 -19167986.001 3219451.368 -16439754.751 10 0 59727 65700.00000 0 -17340149.130 2047739.775 -18523202.563 10 0 59727 66600.00000 0 -15419863.228 598429.069 -20244659.361 10 0 59727 67500.00000 0 -13472007.435 -1114244.617 -21570498.712 10 0 59727 68400.00000 0 -11559222.689 -3063648.668 -22474874.886 10 0 59727 69300.00000 0 -9739370.179 -5211634.903 -22940230.778 10 0 59727 70200.00000 0 -8063213.008 -7509917.199 -22957637.128 10 0 59727 71100.00000 0 -6572419.157 -9901887.485 -22526956.776 10 0 59727 72000.00000 0 -5297969.544 -12324792.855 -21656831.584 10 0 59727 72900.00000 0 -4259037.018 -14712181.394 -20364493.566 10 0 59727 73800.00000 0 -3462381.484 -16996513.097 -18675405.390 10 0 59727 74700.00000 0 -2902284.074 -19111825.546 -16622739.045 10 0 59727 75600.00000 0 -2561019.945 -20996342.327 -14246704.627 10 0 59727 76500.00000 0 -2409846.410 -22594915.085 -11593744.085 10 0 59727 77400.00000 0 -2410461.413 -23861197.720 -8715607.386 10 0 59727 78300.00000 0 -2516867.682 -24759463.148 -5668330.542 10 0 59727 79200.00000 0 -2677561.309 -25265988.587 -2511136.542 10 0 59727 80100.00000 0 -2837950.467 -25369953.778 694718.535 10 0 59727 81000.00000 0 -2942900.998 -25073817.275 3887131.452 10 0 59727 81900.00000 0 -2939301.121 -24393157.718 7004346.906 10 0 59727 82800.00000 0 -2778537.453 -23355989.187 9986139.109 10 0 59727 83700.00000 0 -2418778.989 -22001581.231 12774958.123 10 0 59727 84600.00000 0 -1826974.168 -20378834.122 15317020.330 10 0 59727 85500.00000 0 -980478.549 -18544277.681 17563323.768 10 0 59728 0.00000 0 131753.921 -16559776.893 19470570.755 10 0 59728 900.00000 0 1508465.819 -14490037.643 21001983.134 10 0 59728 1800.00000 0 3135905.139 -12400017.243 22127993.965 10 0 59728 2700.00000 0 4988158.816 -10352341.575 22826807.539 10 0 59728 3600.00000 0 7027997.074 -8404836.321 23084815.573 10 0 59728 4500.00000 0 9208196.247 -6608271.406 22896863.315 10 0 59728 5400.00000 0 11473287.845 -5004410.467 22266360.257 10 0 59728 6300.00000 0 13761664.474 -3624444.873 21205232.551 10 0 59728 7200.00000 0 16007958.317 -2487876.692 19733716.624 10 0 59728 8100.00000 0 18145596.412 -1601897.050 17879995.969 10 0 59728 9000.00000 0 20109428.961 -961286.478 15679685.660 10 0 59728 9900.00000 0 21838322.860 -548842.684 13175171.964 10 0 59728 10800.00000 0 23277613.121 -336319.400 10414817.196 10 0 59728 11700.00000 0 24381309.513 -285838.561 7452042.871 10 0 59728 12600.00000 0 25113964.867 -351717.911 4344307.106 10 0 59728 13500.00000 0 25452124.802 -482637.942 1151994.935 10 0 59728 14400.00000 0 25385295.433 -624056.992 -2062757.426 10 0 59728 15300.00000 0 24916385.684 -720771.816 -5237281.065 10 0 59728 16200.00000 0 24061602.900 -719513.845 -8309610.878 10 0 59728 17100.00000 0 22849803.949 -571468.974 -11219714.383 10 0 59728 18000.00000 0 21321327.533 -234611.334 -13910686.678 10 0 59728 18900.00000 0 19526356.125 324250.990 -16329885.976 10 0 59728 19800.00000 0 17522876.527 1127808.142 -18429985.237 10 0 59728 20700.00000 0 15374325.763 2187032.178 -20169917.123 10 0 59728 21600.00000 0 13147022.665 3500466.220 -21515692.122 10 0 59728 22500.00000 0 10907494.857 5054051.056 -22441072.540 10 0 59728 23400.00000 0 8719815.196 6821497.610 -22928088.393 10 0 59728 24300.00000 0 6643060.937 8765190.033 -22967385.007 10 0 59728 25200.00000 0 4729003.169 10837581.158 -22558395.860 10 0 59728 26100.00000 0 3020123.701 12983020.772 -21709338.133 10 0 59728 27000.00000 0 1548041.900 15139938.760 -20437032.308 10 0 59728 27900.00000 0 332415.910 17243290.240 -18766550.827 10 0 59728 28800.00000 0 -619637.907 19227158.844 -16730704.411 10 0 59728 29700.00000 0 -1313585.998 21027408.129 -14369377.857 10 0 59728 30600.00000 0 -1766980.840 22584269.583 -11728730.005 10 0 59728 31500.00000 0 -2008450.847 23844758.869 -8860275.238 10 0 59728 32400.00000 0 -2076223.047 24764819.911 -5819865.822 10 0 59728 33300.00000 0 -2016243.926 25311108.406 -2666596.102 10 0 59728 34200.00000 0 -1879980.200 25462341.946 538349.229 10 0 59728 35100.00000 0 -1721994.073 25210162.525 3732880.057 10 0 59728 36000.00000 0 -1597396.217 24559477.751 6855196.027 10 0 59728 36900.00000 0 -1559283.975 23528268.787 9844969.332 10 0 59728 37800.00000 0 -1656272.193 22146875.050 12644493.276 10 0 59728 38700.00000 0 -1930219.494 20456786.929 15199775.970 10 0 59728 39600.00000 0 -2414244.201 18508997.610 17461559.788 10 0 59728 40500.00000 0 -3131111.814 16361982.541 19386249.059 10 0 59728 41400.00000 0 -4092060.525 14079389.675 20936730.302 10 0 59728 42300.00000 0 -5296113.278 11727534.892 22083071.179 10 0 59728 43200.00000 0 -6729905.249 9372804.366 22803086.534 10 0 59728 44100.00000 0 -8368034.884 7079069.090 23082761.916 10 0 59728 45000.00000 0 -10173925.554 4905216.283 22916527.117 10 0 59728 45900.00000 0 -12101164.397 2902897.594 22307374.508 10 0 59728 46800.00000 0 -14095265.643 1114585.600 21266819.152 10 0 59728 47700.00000 0 -16095788.179 -427981.973 19814700.094 10 0 59728 48600.00000 0 -18038722.394 -1704906.218 17978824.676 10 0 59728 49500.00000 0 -19859049.682 -2708733.081 15794460.289 10 0 59728 50400.00000 0 -21493369.900 -3444535.280 13303680.822 10 0 59728 51300.00000 0 -22882488.353 -3929465.399 10554577.801 10 0 59728 52200.00000 0 -23973854.329 -4191797.334 7600349.123 10 0 59728 53100.00000 0 -24723748.193 -4269494.794 4498281.228 10 0 59728 54000.00000 0 -25099123.627 -4208365.937 1308643.182 10 0 59728 54900.00000 0 -25079025.142 -4059881.360 -1906486.332 10 0 59728 55800.00000 0 -24655518.386 -3878747.688 -5084435.983 10 0 59728 56700.00000 0 -23834091.123 -3720340.375 -8163177.997 10 0 59728 57600.00000 0 -22633505.239 -3638106.142 -11082557.936 10 0 59728 58500.00000 0 -21085103.814 -3681047.486 -13785491.883 10 0 59728 59400.00000 0 -19231600.927 -3891398.737 -16219105.420 10 0 59728 60300.00000 0 -17125404.503 -4302595.169 -18335789.836 10 0 59728 61200.00000 0 -14826542.952 -4937624.160 -20094152.720 10 0 59728 62100.00000 0 -12400283.646 -5807830.785 -21459842.639 10 0 59728 63000.00000 0 -9914544.591 -6912230.469 -22406230.448 10 0 59728 63900.00000 0 -7437209.607 -8237359.050 -22914933.152 10 0 59728 64800.00000 0 -5033461.049 -9757667.261 -22976169.881 10 0 59728 65700.00000 0 -2763243.006 -11436442.891 -22588943.386 10 0 59728 66600.00000 0 -678961.853 -13227221.065 -21761044.283 10 0 59728 67500.00000 0 1176479.803 -15075622.147 -20508879.223 10 0 59728 68400.00000 0 2771234.532 -16921538.583 -18857127.787 10 0 59728 69300.00000 0 4085583.761 -18701577.312 -16838236.562 10 0 59728 70200.00000 0 5112491.429 -20351653.914 -14491762.030 10 0 59728 71100.00000 0 5857617.750 -21809628.696 -11863576.854 10 0 59728 72000.00000 0 6338796.077 -23017873.666 -9004956.758 10 0 59728 72900.00000 0 6584998.671 -23925662.914 -5971567.282 10 0 59728 73800.00000 0 6634838.370 -24491286.997 -2822371.281 10 0 59728 74700.00000 0 6534672.329 -24683803.995 381520.605 10 0 59728 75600.00000 0 6336390.079 -24484355.748 3578033.821 10 0 59728 76500.00000 0 6094980.703 -23886996.178 6705325.160 10 0 59728 77400.00000 0 5865982.301 -22898999.163 9702966.728 10 0 59728 78300.00000 0 5702921.075 -21540634.997 12513096.748 10 0 59728 79200.00000 0 5654846.988 -19844426.228 15081516.452 10 0 59728 80100.00000 0 5764068.329 -17853914.771 17358713.654 10 0 59728 81000.00000 0 6064178.805 -15621991.738 19300795.353 10 0 59728 81900.00000 0 6578458.486 -13208858.702 20870313.594 10 0 59728 82800.00000 0 7318714.469 -10679703.664 22036970.660 10 0 59728 83700.00000 0 8284609.255 -8102186.014 22778191.863 10 0 59728 84600.00000 0 9463505.168 -5543832.144 23079556.230 10 0 59728 85500.00000 0 10830832.367 -3069446.985 22935077.503 10 0 59729 0.00000 0 12350966.838 -738646.150 22347330.202 10 0 59729 900.00000 0 13978585.177 1396392.576 21327417.233 10 0 59729 1800.00000 0 15660440.533 3292863.800 19894779.195 10 0 59729 2700.00000 0 17337491.513 4918880.053 18076846.060 10 0 59729 3600.00000 0 18947296.150 6254561.160 15908536.213 10 0 59729 4500.00000 0 20426574.105 7292622.849 13431609.727 10 0 59729 5400.00000 0 21713831.514 8038438.773 10693885.768 10 0 59729 6300.00000 0 22751939.276 8509571.940 7748336.897 10 0 59729 7200.00000 0 23490556.251 8734793.584 4652075.981 10 0 59729 8100.00000 0 23888294.314 8752629.351 1465254.077 10 0 59729 9000.00000 0 23914531.984 8609493.112 -1750109.868 10 0 59729 9900.00000 0 23550797.475 8357486.759 -4931344.385 10 0 59729 10800.00000 0 22791659.783 8051959.486 -8016361.338 10 0 59729 11700.00000 0 21645087.147 7748931.045 -10944886.598 10 0 59729 12600.00000 0 20132255.026 7502490.051 -13659659.391 10 0 59729 13500.00000 0 18286809.547 7362280.073 -16107574.668 10 0 59729 14400.00000 0 16153616.045 7371182.832 -18240743.877 10 0 59729 15300.00000 0 13787044.849 7563299.497 -20017451.193 10 0 59729 16200.00000 0 11248866.661 7962318.161 -21402984.740 10 0 59729 17100.00000 0 8605846.741 8580338.759 -22370325.256 10 0 59729 18000.00000 0 5927140.238 9417206.572 -22900677.873 10 0 59729 18900.00000 0 3281599.214 10460383.280 -22983836.456 10 0 59729 19800.00000 0 735105.384 11685361.030 -22618373.673 10 0 59729 20700.00000 0 -1651958.867 13056601.397 -21811653.890 10 0 59729 21600.00000 0 -3826995.259 14528958.485 -20579669.834 10 0 59729 22500.00000 0 -5747135.213 16049524.719 -18946707.714 10 0 59729 23400.00000 0 -7380766.269 17559819.909 -16944849.024 10 0 59729 24300.00000 0 -8708577.727 18998229.920 -14613320.550 10 0 59729 25200.00000 0 -9724084.733 20302591.048 -11997707.002 10 0 59729 26100.00000 0 -10433612.225 21412810.555 -9149043.348 10 0 59729 27000.00000 0 -10855743.234 22273412.893 -6122806.015 10 0 59729 27900.00000 0 -11020258.408 22835904.954 -2977823.777 10 0 59729 28800.00000 0 -10966614.725 23060861.848 224869.533 10 0 59729 29700.00000 0 -10742030.292 22919647.083 3423217.769 10 0 59729 30600.00000 0 -10399257.949 22395696.695 6555337.771 10 0 59729 31500.00000 0 -9994142.622 21485315.436 9560704.455 10 0 59729 32400.00000 0 -9583065.635 20197953.448 12381303.798 10 0 59729 33300.00000 0 -9220383.024 18555953.344 14962732.907 10 0 59729 34200.00000 0 -8955964.442 16593779.198 17255227.641 10 0 59729 35100.00000 0 -8832934.495 14356759.808 19214600.099 10 0 59729 36000.00000 0 -8885709.598 11899397.970 20803070.062 10 0 59729 36900.00000 0 -9138411.079 9283314.727 21989976.380 10 0 59729 37800.00000 0 -9603719.887 6574911.857 22752356.464 10 0 59729 38700.00000 0 -10282220.331 3842846.893 23075384.082 10 0 59729 39600.00000 0 -11162260.613 1155422.476 22952657.768 10 0 59729 40500.00000 0 -12220337.155 -1422004.775 22386334.414 10 0 59729 41400.00000 0 -13421988.635 -3829491.299 21387104.831 10 0 59729 42300.00000 0 -14723164.898 -6014749.361 19974010.406 10 0 59729 43200.00000 0 -16072016.493 -7935074.117 18174102.481 10 0 59729 44100.00000 0 -17411032.940 -9558875.644 16021948.638 10 0 59729 45000.00000 0 -18679442.870 -10866752.046 13558992.831 10 0 59729 45900.00000 0 -19815777.549 -11852058.178 10832779.127 10 0 59729 46800.00000 0 -20760491.432 -12520944.878 7896051.661 10 0 59729 47700.00000 0 -21458529.835 -12891865.485 4805746.374 10 0 59729 48600.00000 0 -21861734.910 -12994568.760 1621892.783 10 0 59729 49500.00000 0 -21930986.749 -12868619.323 -1593553.506 10 0 59729 50400.00000 0 -21637986.804 -12561507.159 -4777924.516 10 0 59729 51300.00000 0 -20966605.278 -12126425.980 -7869075.333 10 0 59729 52200.00000 0 -19913732.355 -11619815.089 -10806615.608 10 0 59729 53100.00000 0 -18489594.227 -11098770.207 -13533110.997 10 0 59729 54000.00000 0 -16717517.900 -10618435.017 -15995228.843 10 0 59729 54900.00000 0 -14633152.627 -10229486.392 -18144803.413 10 0 59729 55800.00000 0 -12283179.604 -9975822.473 -19939797.645 10 0 59729 56700.00000 0 -9723563.765 -9892554.024 -21345140.844 10 0 59729 57600.00000 0 -7017421.449 -10004386.248 -22333424.580 10 0 59729 58500.00000 0 -4232594.370 -10324461.059 -22885442.385 10 0 59729 59400.00000 0 -1439032.742 -10853709.649 -22990562.426 10 0 59729 60300.00000 0 1293901.610 -11580742.799 -22646926.227 10 0 59729 61200.00000 0 3900098.269 -12482282.961 -21861470.255 10 0 59729 62100.00000 0 6319215.489 -13524118.639 -20649771.199 10 0 59729 63000.00000 0 8498946.644 -14662539.208 -19035719.376 10 0 59729 63900.00000 0 10396941.945 -15846187.706 -17051028.364 10 0 59729 64800.00000 0 11982306.854 -17018251.652 -14734592.184 10 0 59729 65700.00000 0 13236617.012 -18118897.833 -12131704.342 10 0 59729 66600.00000 0 14154410.250 -19087847.143 -9293155.674 10 0 59729 67500.00000 0 14743138.651 -19866980.237 -6274230.058 10 0 59729 68400.00000 0 15022586.365 -20402864.098 -3133618.759 10 0 59729 69300.00000 0 15023781.184 -20649093.572 67724.522 10 0 59729 70200.00000 0 14787448.814 -20568350.404 3267765.203 10 0 59729 71100.00000 0 14362077.355 -20134094.626 6404583.052 10 0 59729 72000.00000 0 13801675.152 -19331818.945 9417558.349 10 0 59729 72900.00000 0 13163317.122 -18159815.234 12248526.986 10 0 59729 73800.00000 0 12504582.697 -16629422.447 14842883.667 10 0 59729 74700.00000 0 11880992.178 -14764746.658 17150613.580 10 0 59729 75600.00000 0 11343547.719 -12601865.297 19127234.748 10 0 59729 76500.00000 0 10936480.280 -10187548.302 20734635.073 10 0 59729 77400.00000 0 10695295.160 -7577548.318 21941789.940 10 0 59729 78300.00000 0 10645196.268 -4834528.974 22725348.441 10 0 59729 79200.00000 0 10799953.982 -2025714.640 23070078.313 10 0 59729 80100.00000 0 11161263.487 779643.847 22969161.808 10 0 59729 81000.00000 0 11718620.789 3512885.617 22424336.935 10 0 59729 81900.00000 0 12449722.832 6108533.031 21445880.768 10 0 59729 82800.00000 0 13321376.898 8506756.811 20052433.818 10 0 59729 83700.00000 0 14290883.753 10655612.787 18270666.992 10 0 59729 84600.00000 0 15307839.354 12512958.624 16134795.166 10 0 59729 85500.00000 0 16316282.272 14047971.011 13685944.198 99